Location: Sternwarte ZA, Rosenfeld-Brittheim
(48.2889°N, 8.6789°E)
Time: 15:58:20
(UTC+02:00)

ISS - Pass Details

Date: 16 July 2018
Orbit: 402 x 408 km, 51.6° (Epoch: 23 July)

Event Time Altitude Azimuth Distance (km) Brightness Sun altitude
Exits shadow 02:31:40 23° 279° (W) 931 -2.1 -19.0°
Maximum altitude 02:33:30 53° 349° (NNW) 509 -3.1 -18.9°
Drops below altitude 10° 02:36:45 10° 67° (ENE) 1,474 -0.5 -18.8°
Sets 02:38:52 0° 72° (ENE) 2,336 0.5 -18.7°
